User: anonymous   Login
Location: Newark
(7.0858°N, 171.3717°E)
Time: 11:49:14
(UTC+00:00)
Language:

A-11 Canister half - Orbit

View from above orbital plane
View from above orbital plane
View from above satellite
View from above satellite

Ground track
Ground track

The orbit data is extracted from the following two-line orbital elements,

1    51U 60009C   20334.92301828 -.00000073 +00000-0 +10885-3 0  9992
2    51 047.2111 195.4980 0105377 296.2207 062.7780 12.18272450684269
Epoch (UTC): 29 November 2020 22:09:08
Eccentricity: 0.0105377
inclination: 47.2111°
perigee height: 1516 km
apogee height: 1684 km
right ascension of ascending node: 195.4980°
argument of perigee: 296.2207°
revolutions per day: 12.18272450
mean anomaly at epoch: 62.7780°
orbit number at epoch: 68426

The dashed part of the orbit path shows where the satellite is in the earth's shadow,  

DLR